Starlink 11174

operational
NORAD ID: 60409 Int'l Des: 2024-141 Owner: SPXS Country: US Constellation: starlink
LEOCIRCULAR

About Starlink 11174

Description loading...

Live Position

Loading 3D Globe...

Upcoming Passes

Altitude History

Altitude vs Time

uPlot chart will show altitude changes over time

Two-Line Element Set

1 60409U 24141M 25351.11173239 -.00002361 00000-0 -14645-4 0 9992
2 60409 53.1588 133.2988 0000979 75.7963 284.3163 15.69696374 78724
Epoch: Dec 17, 2025 • Age: 12 hours

Current Status

Altitude 360.9 km
Velocity 7.69 km/s
Sub-Earth Point -2.32°S, 179.17°E
Launch Date Aug 10, 2024
Age 1.3 years
Type internet

Technical Details

Classification Payload
Mass 960.00 kg
Dry Mass 910.00 kg
Total Mass 960.00 kg
Length 0.30 m
Diameter 4.10 m
Span 29.00 m
Shape Box + pan
Manufacturer SPXS
Bus Type Starlink V2MD
Phase Status In Orbit
Owner/State SPXS/US

Large Constellations

Loading constellations...